QPF
0.00 0.00 0.00 0.00 0.00 0.00 0.00 0.00 0.00 0.00 0.00 0.00 0.00 0.00 0.00 0.00 0.00 0.00 0.00 0.00 0.00 0.00 0.00 0.00 0.00 0.00 0.00 0.00 0.00 0.00 0.00 0.00 0.00 0.00 0.00 0.00 0.01 0.01
0.00 0.00 0.00 0.00 0.00 0.00 0.00 0.00 0.00 0.00 0.00 0.00 0.00 0.00 0.00 0.00 0.00 0.00 0.00 0.00 0.00 0.00 0.00 0.00 0.00 0.00 0.00 0.00 0.00 0.00 0.00 0.00 0.00 0.00 0.00 0.00 0.00 0.00
0.00 0.00 0.00 0.01 0.00 0.00 0.01 0.00 0.00 0.00 0.00 0.00 0.00 0.00 0.00 0.00 0.00 0.00 0.00 0.00 0.00 0.00 0.00 0.00 0.00 0.00 0.00 0.00 0.00 0.00 0.00 0.00 0.00 0.00 0.00 0.00 0.00 0.00
0.00 0.00 0.00 0.00 0.01 0.02 0.00 0.00 0.01 0.01 0.01 0.00 0.00 0.00 0.00 0.00 0.00 0.00 0.00 0.00 0.00 0.00 0.00 0.00 0.00 0.00 0.00 0.00 0.00 0.00 0.00 0.00 0.00 0.00 0.00 0.00 0.00 0.00
0.00 0.00 0.00 0.00 0.00 0.01 0.01 0.00 0.01 0.02 0.03 0.03 0.00 0.00 0.00 0.00 0.00 0.00 0.00 0.00 0.00 0.00 0.00 0.00 0.00 0.00 0.00 0.00 0.00 0.00 0.00 0.00 0.00 0.00 0.00 0.00 0.00 0.00
0.00 0.00 0.00 0.00 0.00 0.01 0.00 0.00 0.01 0.01 0.01 0.02 0.01 0.00 0.00 0.00 0.00 0.00 0.00 0.00 0.00 0.00 0.00 0.00 0.00 0.00 0.00 0.00 0.00 0.00 0.00 0.00 0.00 0.00 0.00 0.00 0.00 0.00
0.00 0.00 0.00 0.00 0.00 0.00 0.00 0.00 0.01 0.00 0.00 0.01 0.02 0.02 0.00 0.02 0.02 0.00 0.00 0.00 0.00 0.00 0.00 0.00 0.00 0.00 0.00 0.00 0.00 0.00 0.00 0.00 0.00 0.00 0.00 0.00 0.00 0.00
0.01 0.01 0.01 0.02 0.01 0.01 0.00 0.00 0.00 0.00 0.00 0.01 0.02 0.03 0.02 0.01 0.00 0.00 0.00 0.00 0.00 0.00 0.00 0.00 0.00 0.00 0.00 0.00 0.00 0.00 0.00 0.00 0.00 0.00 0.00 0.00 0.00 0.00
0.06 0.08 0.08 0.06 0.04 0.01 0.00 0.00 0.00 0.00 0.00 0.00 0.01 0.00 0.00 0.00 0.00 0.01 0.00 0.00 0.00 0.00 0.00 0.00 0.00 0.00 0.00 0.00 0.00 0.00 0.00 0.00 0.00 0.00 0.00 0.00 0.00 0.00
0.09 0.09 0.09 0.11 0.08 0.02 0.00 0.00 0.00 0.00 0.00 0.00 0.00 0.00 0.00 0.00 0.00 0.00 0.00 0.01 0.00 0.00 0.00 0.00 0.00 0.00 0.00 0.00 0.00 0.00 0.00 0.00 0.00 0.00 0.00 0.00 0.00 0.00
0.04 0.04 0.04 0.04 0.02 0.00 0.00 0.00 0.00 0.00 0.00 0.00 0.00 0.00 0.00 0.00 0.00 0.00 0.00 0.01 0.01 0.00 0.00 0.00 0.00 0.00 0.00 0.00 0.00 0.00 0.00 0.00 0.00 0.00 0.00 0.00 0.00 0.00
0.01 0.01 0.00 0.00 0.00 0.00 0.00 0.00 0.00 0.00 0.00 0.00 0.00 0.00 0.00 0.00 0.00 0.00 0.00 0.02 0.02 0.00 0.00 0.01 0.00 0.00 0.00 0.00 0.00 0.00 0.00 0.00 0.00 0.00 0.00 0.00 0.00 0.00
0.01 0.00 0.00 0.00 0.00 0.00 0.00 0.00 0.00 0.00 0.00 0.00 0.00 0.00 0.00 0.00 0.00 0.00 0.00 0.00 0.00 0.00 0.00 0.02 0.00 0.00 0.00 0.00 0.00 0.00 0.00 0.00 0.00 0.00 0.00 0.00 0.00 0.00
0.00 0.01 0.02 0.00 0.00 0.00 0.00 0.00 0.00 0.00 0.00 0.00 0.00 0.00 0.00 0.00 0.00 0.00 0.00 0.00 0.00 0.00 0.00 0.01 0.00 0.00 0.00 0.00 0.00 0.00 0.00 0.00 0.00 0.00 0.00 0.00 0.00 0.00
0.00 0.00 0.00 0.00 0.00 0.00 0.00 0.00 0.00 0.00 0.00 0.00 0.00 0.00 0.00 0.00 0.00 0.00 0.00 0.00 0.00 0.00 0.00 0.00 0.00 0.00 0.00 0.00 0.00 0.00 0.00 0.01 0.02 0.02 0.01 0.00 0.00 0.00
0.00 0.00 0.00 0.00 0.00 0.00 0.00 0.00 0.00 0.00 0.00 0.00 0.00 0.00 0.00 0.00 0.00 0.00 0.00 0.00 0.00 0.00 0.00 0.00 0.00 0.00 0.00 0.00 0.01 0.00 0.00 0.05 0.06 0.06 0.04 0.02 0.00 0.00
0.00 0.00 0.00 0.00 0.00 0.00 0.00 0.00 0.00 0.00 0.00 0.00 0.00 0.00 0.00 0.00 0.00 0.00 0.00 0.00 0.00 0.00 0.01 0.00 0.00 0.00 0.00 0.01 0.01 0.02 0.02 0.05 0.09 0.06 0.03 0.01 0.01 0.00
0.00 0.00 0.00 0.00 0.00 0.00 0.00 0.00 0.00 0.00 0.00 0.00 0.00 0.00 0.00 0.00 0.00 0.00 0.00 0.00 0.00 0.00 0.01 0.01 0.00 0.00 0.00 0.01 0.02 0.03 0.09 0.16 0.11 0.05 0.03 0.02 0.02 0.00
0.00 0.00 0.00 0.00 0.00 0.00 0.00 0.00 0.00 0.00 0.00 0.00 0.00 0.00 0.00 0.00 0.00 0.00 0.00 0.00 0.00 0.00 0.00 0.02 0.00 0.00 0.00 0.01 0.03 0.05 0.10 0.23 0.17 0.08 0.04 0.01 0.02 0.05
0.00 0.00 0.00 0.00 0.00 0.00 0.00 0.00 0.00 0.00 0.00 0.00 0.00 0.00 0.00 0.00 0.00 0.00 0.00 0.00 0.00 0.00 0.00 0.01 0.00 0.00 0.00 0.01 0.01 0.03 0.10 0.16 0.16 0.11 0.06 0.04 0.07 0.05
0.00 0.00 0.00 0.00 0.00 0.00 0.00 0.00 0.00 0.00 0.00 0.00 0.00 0.00 0.00 0.00 0.00 0.00 0.00 0.00 0.00 0.00 0.00 0.00 0.00 0.00 0.00 0.00 0.00 0.00 0.02 0.05 0.14 0.16 0.12 0.06 0.03 0.02
0.00 0.00 0.00 0.00 0.00 0.00 0.00 0.00 0.00 0.00 0.00 0.00 0.00 0.00 0.00 0.00 0.00 0.00 0.00 0.00 0.00 0.00 0.00 0.00 0.00 0.00 0.00 0.00 0.00 0.00 0.00 0.00 0.01 0.07 0.11 0.05 0.05 0.03
0.00 0.00 0.00 0.00 0.00 0.00 0.00 0.00 0.00 0.00 0.00 0.00 0.00 0.00 0.00 0.00 0.00 0.00 0.00 0.00 0.00 0.00 0.00 0.00 0.00 0.00 0.00 0.00 0.00 0.00 0.00 0.00 0.00 0.00 0.01 0.02 0.02 0.02
MSLP
1018.03 1018.26 1018.29 1017.82 1017.56 1017.53 1017.65 1017.50 1017.27 1016.64 1016.06 1015.93 1016.34 1016.80 1017.27 1017.07 1017.15 1017.37 1017.18 1017.10 1017.35 1017.42 1017.37 1017.35 1017.22 1017.10 1017.01 1016.94 1016.73 1016.48 1016.23 1016.00 1015.87 1015.67 1015.58 1015.61 1015.51 1015.48
1017.78 1017.97 1018.20 1017.69 1017.59 1017.53 1017.50 1017.33 1017.14 1016.93 1016.30 1016.19 1015.99 1016.14 1016.48 1016.90 1016.99 1017.01 1016.75 1016.88 1016.64 1016.55 1016.62 1016.55 1016.47 1016.51 1016.41 1016.24 1016.18 1016.04 1015.77 1015.56 1015.39 1015.24 1015.02 1014.94 1015.00 1014.98
1017.70 1017.84 1017.89 1018.05 1017.67 1017.16 1017.00 1017.44 1016.91 1016.73 1016.16 1015.76 1015.88 1015.84 1016.07 1016.36 1016.17 1016.21 1016.13 1015.87 1015.39 1015.23 1015.35 1015.60 1015.60 1015.64 1015.61 1015.51 1015.43 1015.30 1015.17 1014.92 1014.78 1014.63 1014.43 1014.28 1014.24 1014.28
1017.37 1017.47 1017.53 1017.39 1017.47 1017.68 1017.38 1017.02 1016.81 1016.89 1016.75 1016.03 1015.87 1015.78 1015.62 1015.48 1015.43 1015.58 1015.51 1015.12 1014.76 1014.40 1014.64 1014.77 1014.64 1014.48 1014.42 1014.49 1014.50 1014.37 1014.25 1014.11 1013.93 1013.93 1013.78 1013.55 1013.48 1013.46
1016.59 1016.88 1016.94 1016.87 1016.95 1016.77 1016.88 1016.59 1016.14 1016.33 1016.14 1016.26 1015.84 1015.50 1015.26 1015.00 1014.68 1014.85 1014.72 1014.35 1014.15 1013.59 1013.32 1013.42 1013.26 1013.34 1013.34 1013.23 1013.20 1013.17 1013.06 1012.99 1012.97 1012.92 1012.92 1012.80 1012.69 1012.66
1016.19 1016.11 1016.23 1016.34 1016.32 1016.37 1016.43 1016.33 1016.41 1016.38 1016.10 1015.84 1015.18 1015.31 1014.99 1014.55 1014.20 1014.04 1013.70 1012.93 1012.67 1012.48 1012.20 1011.99 1011.89 1011.89 1011.85 1011.68 1011.52 1011.67 1011.68 1011.52 1011.50 1011.55 1011.61 1011.67 1011.74 1011.71
1015.61 1015.67 1015.70 1015.75 1015.85 1016.15 1016.15 1015.84 1015.97 1016.06 1015.46 1015.02 1014.55 1014.34 1014.21 1013.98 1014.03 1013.57 1013.21 1012.62 1012.47 1012.14 1011.50 1011.01 1010.33 1009.97 1009.77 1009.91 1009.87 1009.71 1009.75 1009.86 1010.04 1010.07 1010.17 1010.30 1010.48 1010.59
1014.93 1015.30 1015.33 1015.66 1015.85 1015.93 1016.01 1016.13 1016.20 1016.11 1015.78 1015.48 1014.62 1014.38 1014.55 1014.31 1013.83 1013.46 1013.17 1012.76 1011.64 1011.84 1011.12 1010.47 1010.14 1009.24 1008.96 1008.66 1008.41 1008.40 1008.40 1008.40 1008.45 1008.48 1008.58 1008.79 1009.06 1009.27
1014.87 1015.36 1015.60 1015.66 1015.38 1015.29 1015.28 1015.62 1015.67 1015.75 1015.66 1015.50 1015.12 1014.54 1014.22 1014.08 1013.97 1013.98 1013.74 1013.06 1012.29 1011.72 1011.48 1009.98 1009.56 1008.48 1008.15 1007.28 1007.07 1007.16 1007.14 1006.98 1006.94 1006.99 1007.05 1007.26 1007.45 1007.88
1014.55 1014.88 1015.57 1015.74 1015.49 1015.15 1015.18 1014.92 1014.73 1014.50 1014.41 1014.53 1014.33 1014.34 1014.27 1014.10 1014.25 1013.92 1013.47 1013.23 1012.63 1011.61 1010.83 1009.19 1008.82 1007.33 1006.85 1006.32 1006.20 1005.84 1005.55 1005.19 1005.09 1005.14 1005.36 1005.61 1005.91 1006.34
1014.17 1014.20 1014.53 1015.27 1015.43 1015.53 1015.20 1014.58 1014.18 1013.82 1013.47 1014.00 1014.38 1014.53 1014.48 1014.09 1014.06 1013.68 1012.79 1012.20 1011.27 1010.18 1009.23 1007.90 1007.49 1006.78 1006.56 1005.26 1005.03 1004.33 1003.73 1003.29 1003.11 1003.21 1003.50 1003.93 1004.40 1004.97
1013.60 1013.71 1013.88 1014.44 1015.09 1015.28 1015.15 1014.34 1013.87 1013.38 1013.25 1013.51 1013.71 1013.51 1013.07 1012.40 1012.53 1012.55 1012.17 1011.50 1010.54 1008.94 1008.02 1007.74 1007.28 1007.38 1005.53 1004.79 1003.59 1002.53 1001.89 1001.07 1000.90 1001.20 1001.68 1002.28 1002.98 1003.66
1013.11 1013.41 1013.47 1013.51 1014.28 1014.89 1014.97 1014.19 1013.96 1013.93 1013.84 1013.48 1012.71 1011.90 1011.38 1010.97 1010.70 1010.69 1010.81 1010.42 1009.44 1008.53 1007.84 1008.09 1007.40 1006.85 1006.24 1003.84 1002.34 1001.51 1000.86 1000.12 999.42 999.59 1000.13 1000.58 1001.34 1002.19
1011.98 1011.51 1012.71 1013.66 1014.17 1014.63 1014.73 1014.39 1014.22 1014.18 1013.33 1012.24 1011.67 1011.17 1010.70 1010.49 1010.32 1010.32 1010.39 1010.02 1009.44 1008.89 1007.93 1007.74 1007.32 1006.51 1004.74 1002.94 1001.18 999.93 999.59 998.97 998.84 998.67 998.38 998.45 999.91 1000.67
1011.80 1012.43 1012.68 1013.39 1014.08 1014.29 1014.15 1013.98 1013.93 1013.28 1012.13 1011.77 1011.23 1010.85 1010.62 1010.63 1010.57 1009.92 1009.16 1008.59 1008.05 1007.48 1007.05 1006.82 1006.45 1005.24 1003.75 1001.94 1000.10 999.18 998.77 998.01 997.73 997.11 996.88 996.20 997.28 998.95
1011.93 1011.98 1012.58 1013.17 1013.24 1013.36 1013.22 1013.41 1012.90 1012.22 1012.10 1011.84 1011.29 1010.92 1010.56 1010.18 1009.65 1009.13 1008.45 1007.74 1007.04 1006.65 1006.14 1005.60 1005.32 1004.48 1002.52 1000.84 999.80 998.84 997.84 997.01 995.70 994.55 994.70 994.90 995.83 997.15
1011.14 1011.31 1011.52 1011.59 1011.73 1011.80 1011.67 1011.82 1012.00 1011.92 1011.77 1011.38 1011.12 1010.66 1010.21 1009.80 1009.26 1008.83 1008.23 1007.30 1006.77 1006.51 1005.44 1004.74 1004.39 1003.66 1002.28 1000.95 1000.07 999.06 997.64 996.16 995.06 994.31 994.70 995.08 995.49 996.06
1011.86 1010.95 1010.52 1010.48 1010.61 1010.78 1011.06 1011.31 1011.53 1011.83 1011.48 1011.51 1011.03 1010.55 1010.14 1009.67 1009.12 1008.59 1007.72 1007.17 1006.70 1006.18 1005.65 1005.11 1004.61 1003.28 1001.77 1000.64 1000.07 998.79 997.78 996.42 994.77 994.30 994.38 994.55 995.01 995.57
1011.39 1010.29 1010.08 1010.10 1010.51 1010.78 1011.12 1011.25 1011.22 1011.40 1011.99 1011.38 1010.81 1010.45 1010.02 1009.44 1008.97 1008.18 1007.56 1006.94 1006.54 1006.26 1006.40 1005.13 1005.05 1004.27 1002.89 1001.48 999.92 999.81 999.17 997.17 995.63 994.46 994.30 994.00 994.38 995.14
1010.78 1010.21 1010.06 1010.34 1010.79 1011.04 1011.23 1011.31 1011.33 1011.41 1011.19 1011.03 1010.65 1010.21 1009.72 1009.24 1008.66 1008.11 1007.53 1007.04 1006.83 1006.58 1006.58 1005.90 1005.52 1004.97 1004.06 1002.74 1001.47 999.98 1000.01 998.73 997.34 995.91 994.32 994.16 994.29 993.97
1010.12 1010.34 1010.45 1010.65 1010.87 1011.22 1011.60 1011.80 1011.85 1011.47 1011.60 1011.20 1010.49 1010.07 1009.55 1009.09 1008.54 1008.13 1007.56 1007.19 1007.30 1006.26 1006.07 1005.78 1005.98 1005.48 1004.64 1003.31 1002.24 1001.10 1000.55 999.80 999.01 997.90 996.33 994.71 994.76 995.09
1010.39 1010.61 1010.77 1011.07 1011.35 1011.74 1011.85 1011.84 1011.57 1011.22 1011.01 1010.72 1010.42 1010.07 1009.59 1009.11 1008.61 1008.14 1007.59 1006.94 1006.37 1006.16 1006.21 1005.86 1006.24 1005.63 1004.93 1004.34 1003.56 1002.64 1001.57 1000.60 999.36 998.87 998.25 997.18 996.87 995.89
1010.61 1010.76 1010.91 1011.32 1011.63 1011.90 1011.90 1011.52 1011.28 1011.05 1011.06 1010.88 1010.52 1010.17 1009.73 1009.19 1008.83 1008.32 1007.73 1007.02 1006.59 1006.50 1005.97 1006.90 1006.70 1006.16 1005.77 1005.34 1004.54 1003.68 1002.82 1002.01 1000.51 999.40 997.87 998.38 997.67 997.00
Thickness
5716 5711 5708 5711 5711 5710 5706 5703 5697 5691 5696 5703 5697 5696 5691 5691 5688 5684 5683 5683 5682 5681 5681 5682 5684 5684 5683 5686 5690 5694 5700 5706 5710 5717 5723 5727 5732 5735
5710 5705 5701 5705 5703 5702 5700 5698 5696 5693 5690 5696 5696 5695 5688 5683 5680 5677 5676 5672 5671 5673 5672 5673 5673 5674 5675 5677 5680 5684 5690 5697 5702 5708 5715 5721 5726 5731
5702 5698 5695 5692 5692 5696 5695 5688 5689 5690 5689 5692 5691 5690 5684 5675 5674 5670 5667 5666 5667 5668 5665 5662 5664 5664 5665 5668 5671 5675 5681 5687 5693 5700 5706 5714 5721 5726
5695 5692 5687 5689 5685 5680 5681 5680 5680 5679 5676 5679 5681 5677 5674 5673 5666 5660 5656 5656 5659 5660 5658 5655 5657 5658 5660 5662 5663 5667 5671 5678 5686 5691 5698 5707 5714 5721
5694 5687 5683 5684 5679 5679 5676 5676 5678 5673 5671 5666 5666 5667 5666 5665 5661 5654 5651 5650 5648 5653 5655 5652 5653 5653 5653 5656 5658 5661 5665 5671 5678 5684 5690 5699 5706 5714
5690 5688 5683 5679 5677 5674 5671 5669 5666 5662 5662 5659 5660 5654 5651 5653 5652 5647 5645 5651 5647 5645 5647 5650 5650 5650 5651 5653 5656 5657 5660 5665 5672 5678 5685 5693 5700 5708
5684 5683 5680 5677 5673 5668 5665 5665 5661 5657 5659 5656 5653 5650 5644 5640 5635 5638 5636 5640 5636 5635 5638 5642 5648 5650 5650 5651 5653 5656 5660 5663 5667 5674 5681 5688 5695 5703
5679 5676 5675 5669 5664 5660 5658 5655 5650 5646 5643 5640 5642 5635 5629 5628 5629 5627 5626 5624 5628 5626 5630 5633 5634 5643 5645 5646 5648 5649 5653 5658 5663 5670 5677 5684 5691 5699
5671 5664 5662 5660 5660 5658 5655 5647 5641 5634 5631 5629 5626 5625 5623 5619 5616 5610 5610 5612 5613 5617 5615 5623 5627 5635 5638 5642 5642 5641 5646 5653 5660 5667 5674 5680 5688 5695
5666 5659 5652 5649 5649 5647 5644 5642 5640 5637 5633 5627 5624 5618 5614 5611 5602 5601 5602 5600 5602 5607 5610 5616 5619 5631 5631 5630 5629 5634 5641 5651 5659 5666 5673 5678 5684 5692
5661 5658 5653 5644 5639 5634 5633 5633 5632 5630 5628 5621 5612 5606 5601 5599 5593 5593 5595 5596 5599 5606 5613 5617 5617 5615 5609 5618 5619 5625 5636 5647 5658 5666 5671 5675 5679 5686
5655 5651 5647 5640 5632 5624 5623 5624 5623 5622 5618 5611 5606 5604 5601 5601 5594 5589 5589 5588 5591 5604 5611 5603 5604 5591 5597 5606 5614 5624 5633 5645 5655 5663 5670 5671 5673 5679
5647 5642 5641 5638 5627 5617 5612 5615 5613 5606 5601 5600 5601 5604 5604 5601 5600 5596 5590 5588 5592 5596 5601 5587 5586 5582 5577 5599 5613 5617 5625 5637 5650 5659 5664 5669 5672 5678
5647 5650 5636 5621 5614 5606 5601 5599 5596 5591 5596 5599 5598 5598 5597 5594 5592 5589 5583 5582 5582 5582 5587 5581 5573 5571 5584 5597 5612 5621 5623 5633 5641 5651 5664 5673 5670 5676
5639 5626 5620 5609 5600 5594 5592 5591 5585 5588 5593 5591 5591 5591 5589 5585 5582 5585 5587 5587 5587 5585 5580 5576 5569 5576 5585 5598 5612 5618 5619 5629 5639 5653 5665 5679 5682 5680
5622 5620 5609 5598 5593 5589 5590 5584 5585 5586 5583 5581 5581 5582 5582 5580 5581 5583 5584 5585 5586 5585 5581 5577 5571 5574 5591 5602 5609 5615 5622 5630 5647 5665 5673 5682 5685 5685
5618 5611 5605 5600 5596 5593 5591 5586 5581 5578 5576 5576 5574 5574 5575 5575 5575 5577 5578 5582 5580 5578 5583 5582 5575 5574 5586 5595 5603 5610 5619 5635 5648 5662 5666 5670 5678 5684
5599 5601 5601 5598 5594 5590 5584 5579 5574 5569 5569 5565 5566 5568 5567 5567 5569 5570 5575 5576 5575 5575 5572 5570 5564 5573 5584 5594 5599 5605 5614 5628 5647 5657 5664 5669 5672 5680
5593 5598 5595 5592 5585 5580 5573 5569 5567 5563 5556 5558 5560 5560 5561 5562 5563 5567 5570 5573 5571 5569 5559 5567 5556 5557 5568 5582 5594 5595 5600 5616 5632 5652 5660 5670 5672 5675
5589 5589 5586 5580 5573 5567 5563 5559 5557 5554 5553 5552 5553 5554 5556 5557 5559 5560 5564 5565 5563 5560 5554 5556 5552 5550 5554 5566 5577 5587 5591 5604 5618 5635 5658 5666 5670 5681
5585 5577 5572 5567 5562 5556 5550 5547 5544 5545 5541 5542 5547 5548 5550 5552 5554 5555 5558 5557 5552 5560 5558 5556 5546 5544 5547 5557 5568 5578 5585 5592 5602 5617 5636 5659 5666 5668
5570 5564 5559 5554 5549 5543 5540 5538 5539 5539 5539 5540 5540 5542 5544 5545 5548 5550 5552 5555 5558 5557 5553 5554 5543 5542 5543 5545 5551 5562 5571 5581 5597 5605 5615 5632 5643 5668
5558 5554 5550 5544 5539 5534 5532 5534 5534 5534 5532 5532 5533 5535 5537 5539 5540 5544 5547 5551 5552 5550 5553 5539 5535 5536 5536 5534 5540 5547 5558 5565 5582 5594 5604 5616 5631 5646